Location: Quaker Farms
(41.4276°N, 73.1557°W)
Time: 23:55:19
(UTC+00:00)

Vanguard 1 - Pass Details

Date: 13 June 2021
Orbit: 651 x 3832 km, 34.2° (Epoch: 26 July)

Event Time Altitude Azimuth Distance (km) Brightness Sun altitude
Rises 02:03:50 0° 216° (SW) 7,962 14.5 -14.4°
Reaches altitude 10° 02:10:06 10° 209° (SSW) 6,880 14.1 -15.2°
Maximum altitude 02:29:04 38° 152° (SSE) 4,116 12.7 -17.3°
Drops below altitude 10° 02:41:55 10° 91° (E) 4,766 13.2 -18.6°
Sets 02:45:15 0° 83° (E) 5,388 13.6 -18.9°
